[[{"header":{"parameterUnit":"m.s-1","parameterCategory":1,"la1":30.2992,"la2":30.254,"lo1":-89.0895,"lo2":-89.0443,"dy":0.0025,"dx":0.0025,"nx":19,"ny":19,"refTime":"2026-04-05T03:00:00:Z","depth":0,"parameterNumber":2,"parameterNumberName":"U-component_of_WINDS"},"data":[0,0,0,0.3309,0.3312,0.3475,0.3476,0.3662,0.3663,0,0,0,0,0,0,0,0,0,0,0,0.3248,0.3249,0.3309,0.3312,0.3475,0.3476,0.3661,0.3663,0,0,0,0,0,0,0,0,0,0,0,0.3248,0.3249,0.325,0.3313,0.3475,0.3476,0.3661,0.3546,0,0,0,0,0,0,0,0,0,0,0.3392,0.3323,0.3248,0.325,0.3314,0.3475,0.3476,0.3541,0.3553,0.3579,0,0.3598,0,0.3633,0.3674,0.3675,0,0,0,0.3322,0.3313,0.3368,0.325,0.3315,0.3474,0.3404,0.3548,0.3562,0.3595,0.3601,0.3609,0.3637,0.3675,0.3676,0.3791,0.3791,0,0,0.3313,0.327,0.3358,0.3376,0.335,0.3399,0.3409,0.3557,0.3561,0.3602,0.3613,0.364,0.3676,0.3678,0.3791,0.3791,0,0,0,0.3281,0.3263,0.3316,0.3368,0.3399,0.3403,0.3415,0.3554,0.3575,0.3615,0.3642,0.3677,0.3679,0.3791,0.3791,0.3753,0,0,0,0.3276,0.3245,0.3312,0.3287,0.3396,0.3479,0.3409,0.3564,0.3583,0.3641,0.3677,0.3681,0.3791,0.3791,0.3754,0.3743,0,0,0,0.3242,0.3241,0.326,0.3284,0.3353,0.3477,0.3507,0.3569,0.3598,0.3675,0.3681,0.3791,0.3791,0.3755,0.3745,0.3761,0,0,0,0.3193,0.3225,0.3259,0.3304,0.3351,0.3453,0.3507,0.3585,0.3646,0.3678,0.3791,0.3791,0.3756,0.3746,0.3761,0.3767,0.3765,0,0,0.3209,0.3225,0.3255,0.3291,0.3375,0.3432,0.3511,0.3608,0.3655,0.3743,0.3746,0.3754,0.3745,0.3761,0.3769,0.3767,0,0,0,0.3246,0.3267,0.3299,0.3355,0.343,0.3493,0.3582,0.3617,0.3694,0.3691,0.3766,0.3761,0.3772,0.3777,0.3776,0.3788,0.3791,0.3791,0.3791,0.3208,0.3265,0.3319,0.3396,0.3449,0.3541,0.3589,0.3653,0.3696,0.3712,0.3739,0.3737,0.374,0.374,0.3752,0.3746,0.3746,0.3746,0.3746,0.3237,0.3276,0.3331,0.3403,0.3463,0.3524,0.3612,0.364,0.3705,0.3722,0.3734,0.3747,0.3736,0.3749,0.3744,0.3744,0.3744,0.3744,0.3745,0.3218,0.3247,0.329,0.3377,0.3437,0.3514,0.3574,0.3626,0.3677,0.3689,0.3723,0.3724,0.3731,0.3701,0.3701,0.3701,0.3701,0.3701,0.3701,0.3182,0.3232,0.3276,0.3357,0.34,0.3463,0.3554,0.3597,0.3659,0.3693,0.3693,0.3733,0.3724,0.372,0.3701,0.3701,0.3701,0.3701,0.3701,0.3191,0.3197,0.3265,0.3308,0.3407,0.3463,0.353,0.3614,0.3657,0.3685,0.3723,0.3707,0.3727,0.3729,0.3726,0.371,0.371,0.371,0.371,0.3175,0.319,0.3272,0.3337,0.3406,0.3473,0.3547,0.3618,0.3692,0.3722,0.3732,0.3733,0.3732,0.3753,0.3754,0.3753,0.3744,0.3744,0.3744,0.3184,0.3208,0.3262,0.3334,0.3416,0.3484,0.3556,0.3627,0.3713,0.3747,0.3747,0.3746,0.3748,0.3746,0.378,0.3781,0.3779,0,0]},{"header":{"parameterUnit":"m.s-1","parameterCategory":1,"la1":30.2992,"la2":30.254,"lo1":-89.0895,"lo2":-89.0443,"dy":0.0025,"dx":0.0025,"nx":19,"ny":19,"refTime":"2026-04-05T03:00:00:Z","depth":0,"parameterNumber":3,"parameterNumberName":"V-component_of_WINDS"},"data":[0,0,0,4.1745,4.1747,4.1857,4.1858,4.1996,4.1997,0,0,0,0,0,0,0,0,0,0,0,4.1714,4.1715,4.1745,4.1747,4.1857,4.1858,4.1996,4.1997,0,0,0,0,0,0,0,0,0,0,0,4.1714,4.1715,4.1717,4.1748,4.1857,4.1858,4.1995,4.1912,0,0,0,0,0,0,0,0,0,0,4.1805,4.178,4.1715,4.1717,4.1749,4.1857,4.1858,4.1908,4.1917,4.1946,0,4.1976,0,4.1989,4.2007,4.2007,0,0,0,4.1744,4.1773,4.1801,4.1717,4.175,4.1857,4.1807,4.1913,4.1924,4.1958,4.1978,4.1983,4.1991,4.2007,4.2008,4.2194,4.2195,0,0,4.1738,4.1734,4.1794,4.1808,4.1795,4.1803,4.181,4.192,4.1939,4.1978,4.1986,4.1994,4.2008,4.201,4.2194,4.2195,0,0,0,4.1723,4.173,4.1756,4.1802,4.1823,4.1807,4.1815,4.1934,4.1943,4.1988,4.1995,4.2009,4.2011,4.2192,4.2194,4.2242,0,0,0,4.1719,4.1721,4.1753,4.1751,4.1821,4.188,4.1826,4.1935,4.1948,4.1995,4.2009,4.2012,4.2191,4.2193,4.2238,4.2264,0,0,0,4.1706,4.1719,4.1737,4.1751,4.1799,4.1879,4.1894,4.1938,4.1953,4.2007,4.2013,4.2191,4.2193,4.2235,4.2259,4.2313,0,0,0,4.169,4.1774,4.1737,4.1834,4.1798,4.1909,4.1893,4.1975,4.2028,4.201,4.2191,4.2194,4.2234,4.2255,4.2309,4.2358,4.2378,0,0,4.1794,4.1787,4.1844,4.1815,4.1932,4.1892,4.2016,4.2065,4.2071,4.2152,4.2157,4.2239,4.2258,4.2312,4.2493,4.2509,0,0,0,4.1876,4.1917,4.1949,4.2002,4.2045,4.2083,4.2115,4.2134,4.2204,4.2114,4.2274,4.2285,4.2317,4.234,4.2354,4.2381,4.2205,4.2204,4.2204,4.2014,4.2023,4.2119,4.2141,4.2192,4.2227,4.2267,4.2298,4.2287,4.2325,4.2349,4.2458,4.2485,4.2495,4.2524,4.2375,4.2376,4.2376,4.2376,4.2167,4.2227,4.2217,4.2307,4.2314,4.2387,4.2424,4.2415,4.2483,4.244,4.2468,4.2421,4.2513,4.2538,4.238,4.2379,4.2378,4.2378,4.2378,4.2258,4.2289,4.2314,4.2393,4.2451,4.2469,4.2537,4.254,4.2543,4.2571,4.2596,4.2596,4.2595,4.2583,4.2584,4.2584,4.2584,4.2585,4.2585,4.2343,4.237,4.2429,4.2485,4.252,4.2567,4.2604,4.2637,4.2674,4.2671,4.2671,4.2657,4.2521,4.2487,4.2591,4.259,4.2589,4.2588,4.2588,4.2493,4.2461,4.2552,4.2588,4.2655,4.2714,4.2718,4.2787,4.2815,4.2848,4.2829,4.2729,4.2719,4.2709,4.268,4.2828,4.2828,4.2828,4.2828,4.257,4.2568,4.2663,4.2721,4.2777,4.2792,4.2892,4.2922,4.2947,4.2964,4.2944,4.2906,4.2895,4.2893,4.2878,4.2851,4.3039,4.3039,4.304,4.2663,4.2667,4.2753,4.2782,4.2836,4.288,4.2975,4.3038,4.3059,4.3048,4.2978,4.2969,4.2909,4.2889,4.2875,4.2852,4.2803,0,0]}]]